| time (UTC) | temp F | wind direction | speed MPH | gust MPH | rain 1hr in | rain 24hr in | rain mn in | humidity % | barometer mb |
| 20260505205725 | 84 | 166 | 6.0 | 20.0 | 0.00 | 0.00 | 0.00 | 75 | 987.2 |
| 20260505205224 | 84 | 156 | 8.0 | 20.0 | 0.00 | 0.00 | 0.00 | 74 | 987.4 |
| 20260505204723 | 84 | 161 | 8.0 | 20.0 | 0.00 | 0.00 | 0.00 | 73 | 986.8 |
| 20260505204222 | 84 | 183 | 11.0 | 20.0 | 0.00 | 0.00 | 0.00 | 73 | 987.7 |
| 20260505203205 | 84 | 180 | 9.0 | 15.0 | 0.00 | 0.00 | 0.00 | 74 | 987.5 |
| 20260505202704 | 84 | 156 | 7.0 | 15.0 | 0.00 | 0.00 | 0.00 | 74 | 987.9 |
| 20260505202203 | 84 | 165 | 8.0 | 16.0 | 0.00 | 0.00 | 0.00 | 74 | 987.9 |
| 20260505201702 | 84 | 181 | 8.0 | 16.0 | 0.00 | 0.00 | 0.00 | 76 | 988.4 |
| 20260505201201 | 84 | 181 | 9.0 | 15.0 | 0.00 | 0.00 | 0.00 | 75 | 988.1 |
| 20260505195628 | 83 | 172 | 8.0 | 15.0 | 0.00 | 0.00 | 0.00 | 78 | 988.7 |
| 20260505195127 | 83 | 155 | 11.0 | 15.0 | 0.00 | 0.00 | 0.00 | 76 | 988.1 |
| 20260505194626 | 84 | 185 | 8.0 | 15.0 | 0.00 | 0.00 | 0.00 | 75 | 987.4 |
| 20260505193609 | 84 | 185 | 8.0 | 13.0 | 0.00 | 0.00 | 0.00 | 75 | 987.8 |
| 20260505193108 | 83 | 178 | 7.0 | 13.0 | 0.00 | 0.00 | 0.00 | 76 | 988.5 |
| 20260505192607 | 83 | 150 | 8.0 | 13.0 | 0.00 | 0.00 | 0.00 | 77 | 988.8 |
| 20260505192106 | 83 | 171 | 7.0 | 14.0 | 0.00 | 0.00 | 0.00 | 78 | 988.9 |
| 20260505191605 | 83 | 187 | 7.0 | 14.0 | 0.00 | 0.00 | 0.00 | 78 | 989.3 |
| 20260505191104 | 83 | 189 | 6.0 | 16.0 | 0.00 | 0.00 | 0.00 | 77 | 990.3 |
| 20260505190047 | 83 | 191 | 9.0 | 16.0 | 0.00 | 0.00 | 0.00 | 76 | 988.8 |
| 20260505185546 | 82 | 177 | 5.0 | 15.0 | 0.00 | 0.00 | 0.00 | 79 | 990.0 |
| 20260505185045 | 82 | 195 | 7.0 | 15.0 | 0.00 | 0.00 | 0.00 | 79 | 990.4 |
| 20260505184544 | 82 | 181 | 5.0 | 15.0 | 0.00 | 0.00 | 0.00 | 79 | 990.8 |
| 20260505184043 | 81 | 180 | 7.0 | 15.0 | 0.00 | 0.00 | 0.00 | 79 | 991.0 |
| 20260505183542 | 81 | 191 | 8.0 | 16.0 | 0.00 | 0.00 | 0.00 | 79 | 990.9 |
| 20260505183041 | 82 | 190 | 8.0 | 16.0 | 0.00 | 0.00 | 0.00 | 79 | 990.5 |
| 20260505182540 | 82 | 191 | 4.0 | 14.0 | 0.00 | 0.00 | 0.00 | 79 | 990.3 |
| 20260505182039 | 82 | 185 | 7.0 | 14.0 | 0.00 | 0.00 | 0.00 | 79 | 990.2 |
| 20260505181538 | 82 | 191 | 7.0 | 14.0 | 0.00 | 0.00 | 0.00 | 79 | 990.3 |
| 20260505180521 | 81 | 197 | 7.0 | 14.0 | 0.00 | 0.00 | 0.00 | 79 | 989.7 |
| 20260505180020 | 82 | 185 | 6.0 | 14.0 | 0.00 | 0.00 | 0.00 | 79 | 989.5 |
| 20260505175519 | 81 | 180 | 6.0 | 14.0 | 0.00 | 0.00 | 0.00 | 81 | 989.9 |
| 20260505175018 | 81 | 179 | 7.0 | 12.0 | 0.00 | 0.00 | 0.00 | 80 | 990.0 |
| 20260505174517 | 81 | 188 | 5.0 | 12.0 | 0.00 | 0.00 | 0.00 | 81 | 990.5 |
| 20260505173500 | 80 | 169 | 8.0 | 13.0 | 0.00 | 0.00 | 0.00 | 81 | 990.9 |
| 20260505172443 | 80 | 162 | 5.0 | 14.0 | 0.00 | 0.00 | 0.00 | 82 | 991.2 |
| 20260505171426 | 80 | 188 | 6.0 | 14.0 | 0.00 | 0.00 | 0.00 | 82 | 992.3 |
| 20260505170925 | 80 | 197 | 7.0 | 13.0 | 0.00 | 0.00 | 0.00 | 82 | 992.2 |
| 20260505170425 | 79 | 188 | 4.0 | 12.0 | 0.00 | 0.00 | 0.00 | 84 | 992.5 |
| 20260505165407 | 79 | 186 | 5.0 | 12.0 | 0.00 | 0.00 | 0.00 | 84 | 992.7 |
| 20260505164906 | 79 | 185 | 6.0 | 13.0 | 0.00 | 0.00 | 0.00 | 83 | 992.6 |
| 20260505164405 | 79 | 176 | 6.0 | 14.0 | 0.00 | 0.00 | 0.00 | 84 | 992.5 |
| 20260505163349 | 79 | 190 | 5.0 | 13.0 | 0.00 | 0.00 | 0.00 | 85 | 993.3 |
| 20260505162331 | 78 | 192 | 10.0 | 19.0 | 0.00 | 0.00 | 0.00 | 84 | 994.3 |
| 20260505161830 | 78 | 191 | 9.0 | 19.0 | 0.00 | 0.00 | 0.00 | 85 | 993.9 |
| 20260505161330 | 78 | 189 | 7.0 | 16.0 | 0.00 | 0.00 | 0.00 | 86 | 994.0 |
| 20260505160828 | 78 | 201 | 10.0 | 16.0 | 0.00 | 0.00 | 0.00 | 86 | 994.0 |
| 20260505160327 | 77 | 209 | 7.0 | 15.0 | 0.00 | 0.00 | 0.00 | 87 | 994.6 |
| 20260505152806 | 76 | 186 | 8.0 | 16.0 | 0.00 | 0.00 | 0.00 | 89 | 994.8 |
| 20260505152305 | 76 | 184 | 5.0 | 12.0 | 0.00 | 0.00 | 0.00 | 90 | 995.3 |
| 20260505151804 | 76 | 174 | 4.0 | 13.0 | 0.00 | 0.00 | 0.00 | 90 | 995.9 |
| 20260505151302 | 75 | 182 | 5.0 | 13.0 | 0.00 | 0.00 | 0.00 | 91 | 996.2 |
| 20260505150802 | 75 | 188 | 7.0 | 12.0 | 0.00 | 0.00 | 0.00 | 91 | 995.8 |
| 20260505150301 | 75 | 189 | 6.0 | 14.0 | 0.00 | 0.00 | 0.00 | 92 | 995.4 |
| 20260505140219 | 73 | 183 | 8.0 | 14.0 | 0.00 | 0.00 | 0.00 | 93 | 997.1 |
| 20260505130152 | 72 | 166 | 5.0 | 13.0 | 0.00 | 0.00 | 0.00 | 95 | 997.5 |
| 20260505124133 | 71 | 169 | 5.0 | 13.0 | 0.00 | 0.00 | 0.00 | 96 | 997.8 |
| 20260505123632 | 71 | 170 | 5.0 | 13.0 | 0.00 | 0.00 | 0.00 | 96 | 998.2 |
| 20260505121543 | 71 | 178 | 5.0 | 11.0 | 0.00 | 0.00 | 0.00 | 96 | 997.4 |
| 20260505121042 | 71 | 182 | 5.0 | 13.0 | 0.00 | 0.00 | 0.00 | 96 | 997.6 |
| 20260505120541 | 71 | 180 | 3.0 | 13.0 | 0.00 | 0.00 | 0.00 | 96 | 998.1 |
| 20260505120040 | 71 | 164 | 5.0 | 13.0 | 0.00 | 0.00 | 0.00 | 96 | 997.9 |
| 20260505115539 | 70 | 180 | 4.0 | 11.0 | 0.00 | 0.00 | 0.00 | 96 | 997.9 |
| 20260505114522 | 70 | 167 | 3.0 | 13.0 | 0.00 | 0.00 | 0.00 | 96 | 998.1 |
| 20260505113505 | 70 | 187 | 5.0 | 13.0 | 0.00 | 0.00 | 0.00 | 96 | 998.1 |
| 20260505113005 | 70 | 170 | 5.0 | 13.0 | 0.00 | 0.00 | 0.00 | 96 | 998.0 |
| 20260505112503 | 70 | 192 | 5.0 | 13.0 | 0.00 | 0.00 | 0.00 | 96 | 998.4 |
| 20260505112002 | 70 | 179 | 6.0 | 13.0 | 0.00 | 0.00 | 0.00 | 96 | 998.4 |
| 20260505111501 | 70 | 171 | 6.0 | 12.0 | 0.00 | 0.00 | 0.00 | 96 | 998.0 |
| 20260505111000 | 70 | 168 | 4.0 | 12.0 | 0.00 | 0.00 | 0.00 | 96 | 997.6 |
| 20260505101905 | 69 | 150 | 4.0 | 11.0 | 0.00 | 0.00 | 0.00 | 96 | 998.1 |
| 20260505101405 | 69 | 168 | 4.0 | 11.0 | 0.00 | 0.00 | 0.00 | 96 | 998.4 |
| 20260505100904 | 69 | 166 | 3.0 | 11.0 | 0.00 | 0.00 | 0.00 | 95 | 998.3 |
| 20260505100402 | 69 | 154 | 4.0 | 11.0 | 0.00 | 0.00 | 0.00 | 95 | 998.6 |
| 20260505095902 | 69 | 169 | 3.0 | 11.0 | 0.00 | 0.00 | 0.00 | 95 | 998.5 |
| 20260505094845 | 69 | 162 | 4.0 | 11.0 | 0.00 | 0.00 | 0.00 | 95 | 998.2 |
| 20260505094344 | 69 | 161 | 3.0 | 11.0 | 0.00 | 0.00 | 0.00 | 95 | 998.4 |
| 20260505093842 | 69 | 156 | 4.0 | 11.0 | 0.00 | 0.00 | 0.00 | 95 | 998.5 |
| 20260505093342 | 69 | 146 | 4.0 | 11.0 | 0.00 | 0.00 | 0.00 | 95 | 998.2 |
| 20260505092325 | 70 | 147 | 4.0 | 11.0 | 0.00 | 0.00 | 0.00 | 95 | 999.1 |
| 20260505090752 | 69 | 169 | 6.0 | 12.0 | 0.00 | 0.00 | 0.00 | 95 | 998.6 |
| 20260505090251 | 69 | 167 | 3.0 | 11.0 | 0.00 | 0.00 | 0.00 | 94 | 998.3 |
| 20260505085750 | 69 | 161 | 4.0 | 11.0 | 0.00 | 0.00 | 0.00 | 94 | 998.7 |
| 20260505085249 | 70 | 147 | 3.0 | 11.0 | 0.00 | 0.00 | 0.00 | 94 | 998.4 |
| 20260505084748 | 70 | 164 | 3.0 | 11.0 | 0.00 | 0.00 | 0.00 | 94 | 998.5 |
| 20260505084247 | 70 | 158 | 4.0 | 11.0 | 0.00 | 0.00 | 0.00 | 94 | 998.6 |
| 20260505083746 | 70 | 155 | 4.0 | 11.0 | 0.00 | 0.00 | 0.00 | 94 | 999.1 |
| 20260505083245 | 70 | 166 | 5.0 | 11.0 | 0.00 | 0.00 | 0.00 | 93 | 999.0 |
| 20260505082228 | 70 | 173 | 3.0 | 12.0 | 0.00 | 0.00 | 0.00 | 93 | 999.0 |
| 20260505081727 | 70 | 171 | 5.0 | 12.0 | 0.00 | 0.00 | 0.00 | 93 | 999.1 |
| 20260505081226 | 70 | 158 | 6.0 | 12.0 | 0.00 | 0.00 | 0.00 | 93 | 999.3 |
| 20260505080209 | 70 | 160 | 3.0 | 12.0 | 0.00 | 0.00 | 0.00 | 92 | 998.9 |
| 20260505075152 | 70 | 168 | 4.0 | 12.0 | 0.00 | 0.00 | 0.00 | 92 | 998.8 |
| 20260505074651 | 70 | 160 | 4.0 | 12.0 | 0.00 | 0.00 | 0.00 | 92 | 998.9 |
| 20260505074150 | 70 | 156 | 3.0 | 12.0 | 0.00 | 0.00 | 0.00 | 92 | 998.5 |
| 20260505073133 | 70 | 159 | 5.0 | 12.0 | 0.00 | 0.00 | 0.00 | 91 | 999.2 |
| 20260505072632 | 70 | 164 | 4.0 | 12.0 | 0.00 | 0.00 | 0.00 | 91 | 999.1 |
| 20260505071615 | 70 | 167 | 4.0 | 12.0 | 0.00 | 0.00 | 0.00 | 91 | 999.5 |
| 20260505071114 | 70 | 173 | 5.0 | 12.0 | 0.00 | 0.00 | 0.00 | 91 | 999.8 |
| 20260505070057 | 70 | 181 | 6.0 | 13.0 | 0.00 | 0.00 | 0.00 | 91 | 1000.2 |
| 20260505065556 | 70 | 168 | 5.0 | 13.0 | 0.00 | 0.00 | 0.00 | 90 | 999.8 |
| 20260505065055 | 70 | 159 | 6.0 | 12.0 | 0.00 | 0.00 | 0.00 | 90 | 999.8 |
| 20260505064554 | 70 | 168 | 5.0 | 12.0 | 0.00 | 0.00 | 0.00 | 90 | 1000.1 |
| 20260505064053 | 70 | 158 | 6.0 | 12.0 | 0.00 | 0.00 | 0.00 | 90 | 999.9 |
| 20260505063552 | 70 | 168 | 5.0 | 13.0 | 0.00 | 0.00 | 0.00 | 90 | 1000.4 |
| 20260505062535 | 70 | 156 | 5.0 | 13.0 | 0.00 | 0.00 | 0.00 | 90 | 999.6 |
| 20260505062034 | 70 | 157 | 5.0 | 13.0 | 0.00 | 0.00 | 0.00 | 89 | 1000.2 |
| 20260505061533 | 70 | 157 | 6.0 | 13.0 | 0.00 | 0.00 | 0.00 | 89 | 999.9 |
| 20260505061032 | 70 | 152 | 7.0 | 12.0 | 0.00 | 0.00 | 0.00 | 89 | 1000.1 |
| 20260505060531 | 70 | 158 | 5.0 | 12.0 | 0.00 | 0.00 | 0.00 | 89 | 1000.1 |
| 20260505060030 | 70 | 152 | 5.0 | 12.0 | 0.00 | 0.00 | 0.00 | 89 | 1000.1 |
| 20260505055013 | 70 | 147 | 4.0 | 12.0 | 0.00 | 0.00 | 0.00 | 89 | 1000.2 |
| 20260505054512 | 70 | 140 | 4.0 | 12.0 | 0.00 | 0.00 | 0.00 | 89 | 999.9 |
| 20260505054011 | 70 | 148 | 6.0 | 12.0 | 0.00 | 0.00 | 0.00 | 89 | 1000.3 |
| 20260505053510 | 70 | 147 | 5.0 | 12.0 | 0.00 | 0.00 | 0.00 | 88 | 1000.4 |
| 20260505053009 | 70 | 153 | 5.0 | 12.0 | 0.00 | 0.00 | 0.00 | 88 | 1000.3 |
| 20260505052508 | 70 | 153 | 4.0 | 12.0 | 0.00 | 0.00 | 0.00 | 88 | 1000.2 |
| 20260505052007 | 70 | 141 | 7.0 | 13.0 | 0.00 | 0.00 | 0.00 | 88 | 999.6 |
| 20260505050950 | 70 | 146 | 6.0 | 13.0 | 0.00 | 0.00 | 0.00 | 88 | 1000.1 |
| 20260505050449 | 70 | 150 | 6.0 | 13.0 | 0.00 | 0.00 | 0.00 | 88 | 1000.1 |
| 20260505041425 | 71 | 137 | 5.0 | 13.0 | 0.00 | 0.00 | 0.00 | 85 | 999.7 |
| 20260505040924 | 71 | 148 | 6.0 | 13.0 | 0.00 | 0.00 | 0.00 | 85 | 1000.1 |
| 20260505040423 | 71 | 150 | 6.0 | 13.0 | 0.00 | 0.00 | 0.00 | 84 | 999.9 |
| 20260505035922 | 71 | 150 | 6.0 | 13.0 | 0.00 | 0.00 | 0.00 | 84 | 1000.0 |
| 20260505035421 | 71 | 160 | 6.0 | 13.0 | 0.00 | 0.00 | 0.00 | 84 | 999.8 |
| 20260505034919 | 72 | 153 | 7.0 | 13.0 | 0.00 | 0.00 | 0.00 | 84 | 1000.1 |
| 20260505034419 | 72 | 157 | 7.0 | 13.0 | 0.00 | 0.00 | 0.00 | 83 | 999.4 |
| 20260505033918 | 72 | 151 | 7.0 | 14.0 | 0.00 | 0.00 | 0.00 | 83 | 999.6 |
| 20260505033416 | 72 | 159 | 7.0 | 16.0 | 0.00 | 0.00 | 0.00 | 82 | 999.3 |
| 20260505032400 | 72 | 160 | 7.0 | 12.0 | 0.00 | 0.00 | 0.00 | 82 | 998.9 |
| 20260505031859 | 72 | 151 | 7.0 | 12.0 | 0.00 | 0.00 | 0.00 | 81 | 998.9 |
| 20260505031358 | 72 | 158 | 5.0 | 12.0 | 0.00 | 0.00 | 0.00 | 81 | 999.0 |
| 20260505030857 | 73 | 152 | 7.0 | 14.0 | 0.00 | 0.00 | 0.00 | 81 | 998.6 |
| 20260505030356 | 73 | 151 | 7.0 | 14.0 | 0.00 | 0.00 | 0.00 | 81 | 998.2 |
| 20260505025855 | 73 | 159 | 7.0 | 13.0 | 0.00 | 0.00 | 0.00 | 81 | 998.3 |
| 20260505025354 | 73 | 154 | 7.0 | 13.0 | 0.00 | 0.00 | 0.00 | 81 | 998.3 |
| 20260505024853 | 73 | 155 | 7.0 | 13.0 | 0.00 | 0.00 | 0.00 | 81 | 998.8 |
| 20260505024352 | 73 | 158 | 6.0 | 14.0 | 0.00 | 0.00 | 0.00 | 81 | 998.4 |
| 20260505023851 | 73 | 155 | 6.0 | 14.0 | 0.00 | 0.00 | 0.00 | 80 | 997.6 |
| 20260505023350 | 73 | 157 | 5.0 | 12.0 | 0.00 | 0.00 | 0.00 | 81 | 998.3 |
| 20260505022333 | 73 | 155 | 5.0 | 12.0 | 0.00 | 0.00 | 0.00 | 80 | 997.9 |
| 20260505021832 | 74 | 155 | 5.0 | 12.0 | 0.00 | 0.00 | 0.00 | 79 | 998.1 |
| 20260505021331 | 74 | 154 | 7.0 | 12.0 | 0.00 | 0.00 | 0.00 | 79 | 997.9 |
| 20260505020830 | 74 | 153 | 5.0 | 12.0 | 0.00 | 0.00 | 0.00 | 79 | 997.8 |
| 20260505020329 | 74 | 152 | 6.0 | 12.0 | 0.00 | 0.00 | 0.00 | 78 | 997.6 |
| 20260505015828 | 74 | 158 | 7.0 | 12.0 | 0.00 | 0.00 | 0.00 | 78 | 998.1 |
| 20260505014255 | 75 | 155 | 7.0 | 12.0 | 0.00 | 0.00 | 0.00 | 77 | 997.6 |
| 20260505013754 | 75 | 155 | 7.0 | 12.0 | 0.00 | 0.00 | 0.00 | 77 | 997.6 |
| 20260505013253 | 75 | 151 | 4.0 | 12.0 | 0.00 | 0.00 | 0.00 | 77 | 997.3 |
| 20260505012752 | 75 | 162 | 6.0 | 12.0 | 0.00 | 0.00 | 0.00 | 76 | 997.3 |
| 20260505012251 | 75 | 157 | 6.0 | 12.0 | 0.00 | 0.00 | 0.00 | 76 | 997.3 |
| 20260505010718 | 76 | 162 | 7.0 | 15.0 | 0.00 | 0.00 | 0.00 | 74 | 997.1 |
| 20260505010217 | 76 | 161 | 7.0 | 15.0 | 0.00 | 0.00 | 0.00 | 74 | 996.6 |
| 20260505005716 | 76 | 150 | 7.0 | 15.0 | 0.00 | 0.00 | 0.00 | 74 | 996.4 |
| 20260505005215 | 76 | 151 | 6.0 | 16.0 | 0.00 | 0.00 | 0.00 | 73 | 996.3 |
| 20260505003642 | 77 | 155 | 7.0 | 14.0 | 0.00 | 0.00 | 0.00 | 72 | 995.9 |
| 20260505003141 | 77 | 154 | 8.0 | 14.0 | 0.00 | 0.00 | 0.00 | 72 | 995.8 |
| 20260505002640 | 77 | 158 | 7.0 | 14.0 | 0.00 | 0.00 | 0.00 | 73 | 995.7 |
| 20260505002139 | 77 | 152 | 7.0 | 18.0 | 0.00 | 0.00 | 0.00 | 72 | 996.1 |
| 20260505001638 | 77 | 156 | 6.0 | 18.0 | 0.00 | 0.00 | 0.00 | 72 | 996.2 |
| 20260505001137 | 77 | 151 | 8.0 | 16.0 | 0.00 | 0.00 | 0.00 | 72 | 995.7 |
| 20260505000636 | 77 | 142 | 10.0 | 16.0 | 0.00 | 0.00 | 0.00 | 72 | 996.0 |
| 20260505000135 | 77 | 145 | 9.0 | 16.0 | 0.00 | 0.00 | 0.00 | 72 | 995.7 |
| 20260504235634 | 78 | 156 | 7.0 | 16.0 | 0.00 | 0.00 | 0.00 | 71 | 995.5 |
| 20260504234617 | 78 | 158 | 9.0 | 16.0 | 0.00 | 0.00 | 0.00 | 70 | 994.6 |
| 20260504234116 | 78 | 152 | 9.0 | 16.0 | 0.00 | 0.00 | 0.00 | 69 | 995.0 |
| 20260504233615 | 78 | 159 | 8.0 | 15.0 | 0.00 | 0.00 | 0.00 | 69 | 994.7 |
| 20260504233114 | 78 | 159 | 8.0 | 15.0 | 0.00 | 0.00 | 0.00 | 70 | 995.5 |
| 20260504232613 | 78 | 156 | 5.0 | 15.0 | 0.00 | 0.00 | 0.00 | 70 | 994.9 |
| 20260504232112 | 79 | 153 | 8.0 | 15.0 | 0.00 | 0.00 | 0.00 | 69 | 994.5 |
| 20260504231611 | 79 | 163 | 8.0 | 14.0 | 0.00 | 0.00 | 0.00 | 68 | 994.2 |
| 20260504231110 | 79 | 168 | 6.0 | 14.0 | 0.00 | 0.00 | 0.00 | 68 | 993.7 |
| 20260504230609 | 79 | 155 | 8.0 | 15.0 | 0.00 | 0.00 | 0.00 | 70 | 994.1 |
| 20260504230108 | 79 | 155 | 8.0 | 16.0 | 0.00 | 0.00 | 0.00 | 70 | 994.6 |
| 20260504225607 | 79 | 150 | 11.0 | 16.0 | 0.00 | 0.00 | 0.00 | 69 | 994.8 |
| 20260504224551 | 79 | 160 | 7.0 | 13.0 | 0.00 | 0.00 | 0.00 | 67 | 993.8 |
| 20260504224049 | 80 | 142 | 8.0 | 16.0 | 0.00 | 0.00 | 0.00 | 68 | 993.8 |
| 20260504223548 | 79 | 154 | 9.0 | 16.0 | 0.00 | 0.00 | 0.00 | 67 | 994.0 |
| 20260504223047 | 80 | 139 | 11.0 | 18.0 | 0.00 | 0.00 | 0.00 | 66 | 993.3 |
| 20260504222547 | 80 | 141 | 10.0 | 19.0 | 0.00 | 0.00 | 0.00 | 66 | 992.8 |
| 20260504222045 | 80 | 142 | 11.0 | 19.0 | 0.00 | 0.00 | 0.00 | 65 | 993.0 |
| 20260504221544 | 80 | 133 | 12.0 | 14.0 | 0.00 | 0.00 | 0.00 | 64 | 992.0 |
| 20260504220527 | 80 | 154 | 8.0 | 16.0 | 0.00 | 0.00 | 0.00 | 63 | 992.0 |
| 20260504220026 | 81 | 148 | 10.0 | 19.0 | 0.00 | 0.00 | 0.00 | 63 | 992.0 |
| 20260504215525 | 81 | 149 | 11.0 | 19.0 | 0.00 | 0.00 | 0.00 | 62 | 991.6 |
| 20260504215025 | 81 | 162 | 10.0 | 15.0 | 0.00 | 0.00 | 0.00 | 61 | 991.4 |
| 20260504214008 | 80 | 163 | 8.0 | 12.0 | 0.00 | 0.00 | 0.00 | 63 | 992.5 |
| 20260504213506 | 80 | 156 | 7.0 | 12.0 | 0.00 | 0.00 | 0.00 | 62 | 993.5 |
| 20260504213006 | 80 | 166 | 7.0 | 14.0 | 0.00 | 0.00 | 0.00 | 63 | 993.7 |
| 20260504212505 | 80 | 165 | 5.0 | 14.0 | 0.00 | 0.00 | 0.00 | 63 | 993.7 |
| 20260504211448 | 80 | 157 | 5.0 | 14.0 | 0.00 | 0.00 | 0.00 | 62 | 993.7 |
| 20260504210947 | 80 | 169 | 4.0 | 14.0 | 0.00 | 0.00 | 0.00 | 62 | 993.4 |